Year,Month,Day,Hour,Minute,Value (Times are PST for temperature in C)
2014,07,13,00,00,19.40
2014,07,13,00,05,19.30
2014,07,13,00,06,19.30
2014,07,13,00,07,19.30
2014,07,13,00,08,19.30
2014,07,13,00,09,19.30
2014,07,13,00,10,19.30
2014,07,13,00,11,19.30
2014,07,13,00,12,19.30
2014,07,13,00,13,19.30
2014,07,13,00,14,19.30
2014,07,13,00,15,19.30
2014,07,13,00,16,19.30
2014,07,13,00,17,19.30
2014,07,13,00,18,19.30
2014,07,13,00,19,19.30
2014,07,13,00,20,19.30
2014,07,13,00,21,19.30
2014,07,13,00,22,19.30
2014,07,13,00,23,19.20
2014,07,13,00,24,19.20
2014,07,13,00,25,19.20
2014,07,13,00,26,19.20
2014,07,13,00,27,19.10
2014,07,13,00,28,19.10
2014,07,13,00,29,19.10
2014,07,13,00,30,19.20
2014,07,13,00,31,19.20
2014,07,13,00,32,19.20
2014,07,13,00,33,19.20
2014,07,13,00,34,19.20
2014,07,13,00,35,19.20
2014,07,13,00,36,19.20
2014,07,13,00,37,19.20
2014,07,13,00,38,19.20
2014,07,13,00,39,19.30
2014,07,13,00,40,19.30
2014,07,13,00,41,19.30
2014,07,13,00,42,19.30
2014,07,13,00,43,19.30
2014,07,13,00,44,19.20
2014,07,13,00,45,19.20
2014,07,13,00,46,19.20
2014,07,13,00,47,19.20
2014,07,13,00,48,19.20
2014,07,13,00,49,19.20
2014,07,13,00,50,19.20
2014,07,13,00,51,19.30
2014,07,13,00,52,19.30
2014,07,13,00,53,19.30
2014,07,13,00,54,19.30
2014,07,13,00,55,19.30
2014,07,13,00,56,19.30
2014,07,13,00,57,19.30
2014,07,13,00,58,19.30
2014,07,13,00,59,19.40
2014,07,13,01,00,19.40
2014,07,13,01,01,19.40
2014,07,13,01,02,19.40
2014,07,13,01,03,19.40
2014,07,13,01,04,19.40
2014,07,13,01,05,19.40
2014,07,13,01,06,19.40
2014,07,13,01,07,19.30
2014,07,13,01,08,19.30
2014,07,13,01,09,19.30
2014,07,13,01,10,19.30
2014,07,13,01,11,19.20
2014,07,13,01,12,19.20
2014,07,13,01,13,19.10
2014,07,13,01,14,19.10
2014,07,13,01,15,19.10
2014,07,13,01,16,19.00
2014,07,13,01,17,19.00
2014,07,13,01,18,18.90
2014,07,13,01,19,18.90
2014,07,13,01,20,18.90
2014,07,13,01,21,18.80
2014,07,13,01,22,18.80
2014,07,13,01,23,18.80
2014,07,13,01,24,18.70
2014,07,13,01,25,18.70
2014,07,13,01,26,18.70
2014,07,13,01,27,18.70
2014,07,13,01,28,18.60
2014,07,13,01,29,18.60
2014,07,13,01,30,18.60
2014,07,13,01,31,18.60
2014,07,13,01,32,18.60
2014,07,13,01,33,18.60
2014,07,13,01,34,18.60
2014,07,13,01,35,18.50
2014,07,13,01,36,18.50
2014,07,13,01,37,18.50
2014,07,13,01,38,18.50
2014,07,13,01,39,18.50
2014,07,13,01,40,18.50
2014,07,13,01,41,18.40
2014,07,13,01,42,18.40
2014,07,13,01,43,18.40
2014,07,13,01,44,18.40
2014,07,13,01,45,18.40
2014,07,13,01,46,18.30
2014,07,13,01,47,18.30
2014,07,13,01,48,18.30
2014,07,13,01,49,18.30
2014,07,13,01,50,18.30
2014,07,13,01,51,18.30
2014,07,13,01,52,18.30
2014,07,13,01,53,18.30
2014,07,13,01,54,18.20
2014,07,13,01,55,18.20
2014,07,13,01,56,18.20
2014,07,13,01,57,18.20
2014,07,13,01,58,18.20
2014,07,13,01,59,18.20
2014,07,13,02,00,18.20
2014,07,13,02,01,18.10
2014,07,13,02,02,18.10
2014,07,13,02,03,18.10
2014,07,13,02,04,18.10
2014,07,13,02,05,18.10
2014,07,13,02,06,18.00
2014,07,13,02,07,18.00
2014,07,13,02,08,17.90
2014,07,13,02,09,17.90
2014,07,13,02,10,17.90
2014,07,13,02,11,17.90
2014,07,13,02,12,17.90
2014,07,13,02,13,17.90
2014,07,13,02,14,17.90
2014,07,13,02,15,17.90
2014,07,13,02,16,17.90
2014,07,13,02,17,17.90
2014,07,13,02,18,17.90
2014,07,13,02,19,17.90
2014,07,13,02,20,17.90
2014,07,13,02,21,17.80
2014,07,13,02,22,17.80
2014,07,13,02,23,17.90
2014,07,13,02,24,17.90
2014,07,13,02,25,17.80
2014,07,13,02,26,17.80
2014,07,13,02,27,17.80
2014,07,13,02,28,17.80
2014,07,13,02,29,17.80
2014,07,13,02,30,17.80
2014,07,13,02,31,17.80
2014,07,13,02,32,17.80
2014,07,13,02,33,17.80
2014,07,13,02,34,17.80
2014,07,13,02,35,17.70
2014,07,13,02,36,17.70
2014,07,13,02,37,17.70
2014,07,13,02,38,17.70
2014,07,13,02,39,17.70
2014,07,13,02,40,17.70
2014,07,13,02,41,17.70
2014,07,13,02,42,17.70
2014,07,13,02,43,17.60
2014,07,13,02,44,17.60
2014,07,13,02,45,17.60
2014,07,13,02,46,17.60
2014,07,13,02,47,17.60
2014,07,13,02,48,17.60
2014,07,13,02,49,17.60
2014,07,13,02,50,17.60
2014,07,13,02,51,17.60
2014,07,13,02,52,17.60
2014,07,13,02,53,17.60
2014,07,13,02,54,17.60
2014,07,13,02,55,17.60
2014,07,13,02,56,17.70
2014,07,13,02,57,17.70
2014,07,13,02,58,17.70
2014,07,13,02,59,17.70
2014,07,13,03,00,17.70
2014,07,13,03,01,17.70
2014,07,13,03,02,17.80
2014,07,13,03,03,17.80
2014,07,13,03,04,17.80
2014,07,13,03,05,17.80
2014,07,13,03,06,17.80
2014,07,13,03,07,17.90
2014,07,13,03,08,17.90
2014,07,13,03,09,17.90
2014,07,13,03,10,17.90
2014,07,13,03,11,17.90
2014,07,13,03,12,17.90
2014,07,13,03,13,17.90
2014,07,13,03,14,17.90
2014,07,13,03,15,17.90
2014,07,13,03,16,17.90
2014,07,13,03,17,17.90
2014,07,13,03,18,17.90
2014,07,13,03,19,17.90
2014,07,13,03,20,17.90
2014,07,13,03,21,18.00
2014,07,13,03,22,18.00
2014,07,13,03,23,18.00
2014,07,13,03,24,18.00
2014,07,13,03,25,18.00
2014,07,13,03,26,18.00
2014,07,13,03,27,18.00
2014,07,13,03,28,18.00
2014,07,13,03,29,18.00
2014,07,13,03,30,18.00
2014,07,13,03,31,18.00
2014,07,13,03,32,18.00
2014,07,13,03,33,18.00
2014,07,13,03,34,18.00
2014,07,13,03,35,18.00
2014,07,13,03,36,18.00
2014,07,13,03,37,18.00
2014,07,13,03,38,18.00
2014,07,13,03,39,18.00
2014,07,13,03,40,18.00
2014,07,13,03,41,18.00
2014,07,13,03,42,17.90
2014,07,13,03,43,17.90
2014,07,13,03,44,17.90
2014,07,13,03,45,17.90
2014,07,13,03,46,17.80
2014,07,13,03,47,17.80
2014,07,13,03,48,17.80
2014,07,13,03,49,17.80
2014,07,13,03,50,17.80
2014,07,13,03,51,17.80
2014,07,13,03,52,17.80
2014,07,13,03,53,17.80
2014,07,13,03,54,17.80
2014,07,13,03,55,17.80
2014,07,13,03,56,17.80
2014,07,13,03,57,17.80
2014,07,13,03,58,17.80
2014,07,13,03,59,17.80
2014,07,13,04,00,17.80
2014,07,13,04,01,17.80
2014,07,13,04,02,17.80
2014,07,13,04,03,17.70
2014,07,13,04,04,17.70
2014,07,13,04,05,17.70
2014,07,13,04,06,17.70
2014,07,13,04,07,17.70
2014,07,13,04,08,17.70
2014,07,13,04,09,17.70
2014,07,13,04,10,17.70
2014,07,13,04,11,17.70
2014,07,13,04,12,17.60
2014,07,13,04,13,17.60
2014,07,13,04,14,17.60
2014,07,13,04,15,17.60
2014,07,13,04,16,17.60
2014,07,13,04,17,17.60
2014,07,13,04,18,17.60
2014,07,13,04,19,17.60
2014,07,13,04,20,17.60
2014,07,13,04,21,17.60
2014,07,13,04,22,17.60
2014,07,13,04,23,17.60
2014,07,13,04,24,17.50
2014,07,13,04,25,17.60
2014,07,13,04,26,17.50
2014,07,13,04,27,17.50
2014,07,13,04,28,17.50
2014,07,13,04,29,17.50
2014,07,13,04,30,17.50
2014,07,13,04,31,17.40
2014,07,13,04,32,17.40
2014,07,13,04,33,17.40
2014,07,13,04,34,17.40
2014,07,13,04,35,17.40
2014,07,13,04,36,17.40
2014,07,13,04,37,17.30
2014,07,13,04,38,17.30
2014,07,13,04,39,17.30
2014,07,13,04,40,17.30
2014,07,13,04,41,17.30
2014,07,13,04,42,17.30
2014,07,13,04,43,17.30
2014,07,13,04,44,17.30
2014,07,13,04,45,17.30
2014,07,13,04,46,17.30
2014,07,13,04,47,17.30
2014,07,13,04,48,17.30
2014,07,13,04,49,17.30
2014,07,13,04,50,17.30
2014,07,13,04,51,17.30
2014,07,13,04,52,17.30
2014,07,13,04,53,17.20
2014,07,13,04,54,17.20
2014,07,13,04,55,17.20
2014,07,13,04,56,17.20
2014,07,13,04,57,17.10
2014,07,13,04,58,17.10
2014,07,13,04,59,17.10
2014,07,13,05,00,17.10
2014,07,13,05,01,17.00
2014,07,13,05,02,17.00
2014,07,13,05,03,17.00
2014,07,13,05,04,17.00
2014,07,13,05,05,17.00
2014,07,13,05,06,17.00
2014,07,13,05,07,17.00
2014,07,13,05,08,17.00
2014,07,13,05,09,17.00
2014,07,13,05,10,16.90
2014,07,13,05,11,16.90
2014,07,13,05,12,16.90
2014,07,13,05,13,16.90
2014,07,13,05,14,16.90
2014,07,13,05,15,16.90
2014,07,13,05,16,16.90
2014,07,13,05,17,16.90
2014,07,13,05,18,16.90
2014,07,13,05,19,16.90
2014,07,13,05,20,16.90
2014,07,13,05,21,16.90
2014,07,13,05,22,16.90
2014,07,13,05,23,16.90
2014,07,13,05,24,16.90
2014,07,13,05,25,16.90
2014,07,13,05,26,16.90
2014,07,13,05,27,16.90
2014,07,13,05,28,16.90
2014,07,13,05,29,16.90
2014,07,13,05,30,16.90
2014,07,13,05,31,16.90
2014,07,13,05,32,16.90
2014,07,13,05,33,17.00
2014,07,13,05,34,17.00
2014,07,13,05,35,17.00
2014,07,13,05,36,17.00
2014,07,13,05,37,17.00
2014,07,13,05,38,17.00
2014,07,13,05,39,17.00
2014,07,13,05,40,17.00
2014,07,13,05,41,17.00
2014,07,13,05,42,17.10
2014,07,13,05,43,17.00
2014,07,13,05,44,17.00
2014,07,13,05,45,17.00
2014,07,13,05,46,17.00
2014,07,13,05,47,17.00
2014,07,13,05,48,17.00
2014,07,13,05,49,17.00
2014,07,13,05,50,17.00
2014,07,13,05,51,17.00
2014,07,13,05,52,17.00
2014,07,13,05,53,17.00
2014,07,13,05,54,17.00
2014,07,13,05,55,17.00
2014,07,13,05,56,17.00
2014,07,13,05,57,17.10
2014,07,13,05,58,17.10
2014,07,13,05,59,17.10
2014,07,13,06,00,17.10
2014,07,13,06,01,17.20
2014,07,13,06,02,17.20
2014,07,13,06,03,17.20
2014,07,13,06,04,17.20
2014,07,13,06,05,17.20
2014,07,13,06,06,17.20
2014,07,13,06,07,17.20
2014,07,13,06,08,17.20
2014,07,13,06,09,17.30
2014,07,13,06,10,17.30
2014,07,13,06,11,17.30
2014,07,13,06,12,17.30
2014,07,13,06,13,17.30
2014,07,13,06,14,17.30
2014,07,13,06,15,17.30
2014,07,13,06,16,17.30
2014,07,13,06,17,17.40
2014,07,13,06,18,17.40
2014,07,13,06,19,17.40
2014,07,13,06,20,17.40
2014,07,13,06,21,17.50
2014,07,13,06,22,17.50
2014,07,13,06,23,17.50
2014,07,13,06,24,17.60
2014,07,13,06,25,17.60
2014,07,13,06,26,17.60
2014,07,13,06,27,17.60
2014,07,13,06,28,17.60
2014,07,13,06,29,17.70
2014,07,13,06,30,17.70
2014,07,13,06,31,17.70
2014,07,13,06,32,17.70
2014,07,13,06,33,17.70
2014,07,13,06,34,17.70
2014,07,13,06,35,17.80
2014,07,13,06,36,17.80
2014,07,13,06,37,17.80
2014,07,13,06,38,17.80
2014,07,13,06,39,17.80
2014,07,13,06,40,17.90
2014,07,13,06,41,17.90
2014,07,13,06,42,17.90
2014,07,13,06,43,18.00
2014,07,13,06,44,18.00
2014,07,13,06,45,18.00
2014,07,13,06,46,18.10
2014,07,13,06,47,18.10
2014,07,13,06,48,18.20
2014,07,13,06,49,18.20
2014,07,13,06,50,18.20
2014,07,13,06,51,18.20
2014,07,13,06,52,18.30
2014,07,13,06,53,18.30
2014,07,13,06,54,18.30
2014,07,13,06,55,18.30
2014,07,13,06,56,18.30
2014,07,13,06,57,18.40
2014,07,13,06,58,18.50
2014,07,13,06,59,18.50
2014,07,13,07,00,18.60
2014,07,13,07,01,18.70
2014,07,13,07,02,18.70
2014,07,13,07,03,18.70
2014,07,13,07,04,18.80
2014,07,13,07,05,18.80
2014,07,13,07,06,18.90
2014,07,13,07,07,19.00
2014,07,13,07,08,19.10
2014,07,13,07,09,19.10
2014,07,13,07,10,19.20
2014,07,13,07,11,19.30
2014,07,13,07,12,19.30
2014,07,13,07,13,19.40
2014,07,13,07,14,19.50
2014,07,13,07,15,19.60
2014,07,13,07,16,19.70
2014,07,13,07,17,19.80
2014,07,13,07,18,19.90
2014,07,13,07,19,20.00
2014,07,13,07,20,20.10
2014,07,13,07,21,20.20
2014,07,13,07,22,20.30
2014,07,13,07,23,20.40
2014,07,13,07,24,20.50
2014,07,13,07,25,20.50
2014,07,13,07,26,20.60
2014,07,13,07,27,20.70
2014,07,13,07,28,20.70
2014,07,13,07,29,20.80
2014,07,13,07,30,20.80
2014,07,13,07,31,20.80
2014,07,13,07,32,20.90
2014,07,13,07,33,20.90
2014,07,13,07,34,20.90
2014,07,13,07,35,21.00
2014,07,13,07,36,21.00
2014,07,13,07,37,21.00
2014,07,13,07,38,21.10
2014,07,13,07,39,21.10
2014,07,13,07,40,21.20
2014,07,13,07,41,21.20
2014,07,13,07,42,21.20
2014,07,13,07,43,21.20
2014,07,13,07,44,21.30
2014,07,13,07,45,21.30
2014,07,13,07,46,21.30
2014,07,13,07,47,21.30
2014,07,13,07,48,21.30
2014,07,13,07,49,21.40
2014,07,13,07,50,21.40
2014,07,13,07,51,21.40
2014,07,13,07,52,21.40
2014,07,13,07,53,21.40
2014,07,13,07,54,21.40
2014,07,13,07,55,21.50
2014,07,13,07,56,21.50
2014,07,13,07,57,21.50
2014,07,13,07,58,21.60
2014,07,13,07,59,21.60
2014,07,13,08,00,21.60
2014,07,13,08,01,21.70
2014,07,13,08,02,21.70
2014,07,13,08,03,21.70
2014,07,13,08,04,21.70
2014,07,13,08,05,21.70
2014,07,13,08,06,21.70
2014,07,13,08,07,21.70
2014,07,13,08,08,21.70
2014,07,13,08,09,21.70
2014,07,13,08,10,21.70
2014,07,13,08,11,21.70
2014,07,13,08,12,21.70
2014,07,13,08,13,21.80
2014,07,13,08,14,21.80
2014,07,13,08,15,21.80
2014,07,13,08,16,21.70
2014,07,13,08,17,21.70
2014,07,13,08,18,21.70
2014,07,13,08,19,21.70
2014,07,13,08,20,21.70
2014,07,13,08,21,21.70
2014,07,13,08,22,21.70
2014,07,13,08,23,21.70
2014,07,13,08,24,21.70
2014,07,13,08,25,21.70
2014,07,13,08,26,21.70
2014,07,13,08,27,21.80
2014,07,13,08,28,21.80
2014,07,13,08,29,21.80
2014,07,13,08,30,21.80
2014,07,13,08,31,21.80
2014,07,13,08,32,21.80
2014,07,13,08,33,21.90
2014,07,13,08,34,21.90
2014,07,13,08,35,21.90
2014,07,13,08,36,21.90
2014,07,13,08,37,21.90
2014,07,13,08,38,21.90
2014,07,13,08,39,21.90
2014,07,13,08,40,21.90
2014,07,13,08,41,22.00
2014,07,13,08,42,22.00
2014,07,13,08,43,22.10
2014,07,13,08,44,22.10
2014,07,13,08,45,22.20
2014,07,13,08,46,22.20
2014,07,13,08,47,22.30
2014,07,13,08,48,22.30
2014,07,13,08,49,22.40
2014,07,13,08,50,22.40
2014,07,13,08,51,22.40
2014,07,13,08,52,22.40
2014,07,13,08,53,22.40
2014,07,13,08,54,22.40
2014,07,13,08,55,22.40
2014,07,13,08,56,22.40
2014,07,13,08,57,22.40
2014,07,13,08,58,22.30
2014,07,13,08,59,22.30
2014,07,13,09,00,22.30
2014,07,13,09,01,22.20
2014,07,13,09,02,22.20
2014,07,13,09,03,22.10
2014,07,13,09,04,22.10
2014,07,13,09,05,22.10
2014,07,13,09,06,22.10
2014,07,13,09,07,22.10
2014,07,13,09,08,22.10
2014,07,13,09,09,22.10
2014,07,13,09,10,22.10
2014,07,13,09,11,22.10
2014,07,13,09,12,22.10
2014,07,13,09,13,22.10
2014,07,13,09,14,22.10
2014,07,13,09,15,22.10
2014,07,13,09,16,22.10
2014,07,13,09,17,22.20
2014,07,13,09,18,22.20
2014,07,13,09,19,22.20
2014,07,13,09,20,22.20
2014,07,13,09,21,22.20
2014,07,13,09,22,22.20
2014,07,13,09,23,22.30
2014,07,13,09,24,22.30
2014,07,13,09,25,22.40
2014,07,13,09,26,22.40
2014,07,13,09,27,22.40
2014,07,13,09,28,22.40
2014,07,13,09,29,22.40
2014,07,13,09,30,22.40
2014,07,13,09,31,22.40
2014,07,13,09,32,22.40
2014,07,13,09,33,22.40
2014,07,13,09,34,22.40
2014,07,13,09,35,22.40
2014,07,13,09,36,22.40
2014,07,13,09,37,22.40
2014,07,13,09,38,22.40
2014,07,13,09,39,22.30
2014,07,13,09,40,22.30
2014,07,13,09,41,22.30
2014,07,13,09,42,22.20
2014,07,13,09,43,22.20
2014,07,13,09,44,22.20
2014,07,13,09,45,22.20
2014,07,13,09,46,22.20
2014,07,13,09,47,22.30
2014,07,13,09,48,22.40
2014,07,13,09,49,22.40
2014,07,13,09,50,22.50
2014,07,13,09,51,22.50
2014,07,13,09,52,22.60
2014,07,13,09,53,22.60
2014,07,13,09,54,22.60
2014,07,13,09,55,22.60
2014,07,13,09,56,22.60
2014,07,13,09,57,22.60
2014,07,13,09,58,22.60
2014,07,13,09,59,22.60
2014,07,13,10,00,22.60
2014,07,13,10,01,22.70
2014,07,13,10,02,22.70
2014,07,13,10,03,22.80
2014,07,13,10,04,22.80
2014,07,13,10,05,22.90
2014,07,13,10,06,23.00
2014,07,13,10,07,23.10
2014,07,13,10,08,23.10
2014,07,13,10,09,23.20
2014,07,13,10,10,23.30
2014,07,13,10,11,23.40
2014,07,13,10,12,23.40
2014,07,13,10,13,23.50
2014,07,13,10,14,23.50
2014,07,13,10,15,23.50
2014,07,13,10,16,23.50
2014,07,13,10,17,23.60
2014,07,13,10,18,23.60
2014,07,13,10,19,23.60
2014,07,13,10,20,23.70
2014,07,13,10,21,23.70
2014,07,13,10,22,23.80
2014,07,13,10,23,23.80
2014,07,13,10,24,23.90
2014,07,13,10,25,23.90
2014,07,13,10,26,23.90
2014,07,13,10,27,24.00
2014,07,13,10,28,24.00
2014,07,13,10,29,24.00
2014,07,13,10,30,24.00
2014,07,13,10,31,24.00
2014,07,13,10,32,24.00
2014,07,13,10,33,24.00
2014,07,13,10,34,24.10
2014,07,13,10,35,24.10
2014,07,13,10,36,24.10
2014,07,13,10,37,24.10
2014,07,13,10,38,24.10
2014,07,13,10,39,24.10
2014,07,13,10,40,24.10
2014,07,13,10,41,24.10
2014,07,13,10,42,24.00
2014,07,13,10,43,24.00
2014,07,13,10,44,24.10
2014,07,13,10,45,24.10
2014,07,13,10,46,24.20
2014,07,13,10,47,24.20
2014,07,13,10,48,24.20
2014,07,13,10,49,24.30
2014,07,13,10,50,24.30
2014,07,13,10,51,24.30
2014,07,13,10,52,24.40
2014,07,13,10,53,24.50
2014,07,13,10,54,24.50
2014,07,13,10,55,24.50
2014,07,13,10,56,24.60
2014,07,13,10,57,24.50
2014,07,13,10,58,24.50
2014,07,13,10,59,24.50
2014,07,13,11,00,24.50
2014,07,13,11,01,24.60
2014,07,13,11,02,24.50
2014,07,13,11,03,24.40
2014,07,13,11,04,24.30
2014,07,13,11,05,24.30
2014,07,13,11,06,24.20
2014,07,13,11,07,24.20
2014,07,13,11,08,24.10
2014,07,13,11,09,24.10
2014,07,13,11,10,24.20
2014,07,13,11,11,24.30
2014,07,13,11,12,24.40
2014,07,13,11,13,24.40
2014,07,13,11,14,24.40
2014,07,13,11,15,24.40
2014,07,13,11,16,24.40
2014,07,13,11,17,24.30
2014,07,13,11,18,24.30
2014,07,13,11,19,24.40
2014,07,13,11,20,24.50
2014,07,13,11,21,24.50
2014,07,13,11,22,24.50
2014,07,13,11,23,24.40
2014,07,13,11,24,24.30
2014,07,13,11,25,24.20
2014,07,13,11,26,24.00
2014,07,13,11,27,23.90
2014,07,13,11,28,23.80
2014,07,13,11,29,23.70
2014,07,13,11,30,23.70
2014,07,13,11,31,23.60
2014,07,13,11,32,23.50
2014,07,13,11,33,23.50
2014,07,13,11,34,23.50
2014,07,13,11,35,23.50
2014,07,13,11,36,23.60
2014,07,13,11,37,23.60
2014,07,13,11,38,23.70
2014,07,13,11,39,23.80
2014,07,13,11,40,23.80
2014,07,13,11,41,23.90
2014,07,13,11,42,23.90
2014,07,13,11,43,23.90
2014,07,13,11,44,23.90
2014,07,13,11,45,23.90
2014,07,13,11,46,23.80
2014,07,13,11,47,23.70
2014,07,13,11,48,23.70
2014,07,13,11,49,23.70
2014,07,13,11,50,23.70
2014,07,13,11,51,23.70
2014,07,13,11,52,23.70
2014,07,13,11,53,23.70
2014,07,13,11,54,23.80
2014,07,13,11,55,23.80
2014,07,13,11,56,23.80
2014,07,13,11,57,23.80
2014,07,13,11,58,23.90
2014,07,13,11,59,23.80
2014,07,13,12,00,23.80
2014,07,13,12,01,23.70
2014,07,13,12,02,23.70
2014,07,13,12,03,23.70
2014,07,13,12,04,23.70
2014,07,13,12,05,23.80
2014,07,13,12,06,23.80
2014,07,13,12,07,23.80
2014,07,13,12,08,23.80
2014,07,13,12,09,23.80
2014,07,13,12,10,23.80
2014,07,13,12,11,23.90
2014,07,13,12,12,23.90
2014,07,13,12,13,24.00
2014,07,13,12,14,24.10
2014,07,13,12,15,24.10
2014,07,13,12,16,24.10
2014,07,13,12,17,24.10
2014,07,13,12,18,24.00
2014,07,13,12,19,24.00
2014,07,13,12,20,24.00
2014,07,13,12,21,23.90
2014,07,13,12,22,24.00
2014,07,13,12,23,24.10
2014,07,13,12,24,24.10
2014,07,13,12,25,24.10
2014,07,13,12,26,24.20
2014,07,13,12,27,24.30
2014,07,13,12,28,24.40
2014,07,13,12,29,24.40
2014,07,13,12,30,24.50
2014,07,13,12,31,24.50
2014,07,13,12,32,24.60
2014,07,13,12,33,24.60
2014,07,13,12,34,24.60
2014,07,13,12,35,24.70
2014,07,13,12,36,24.70
2014,07,13,12,37,24.70
2014,07,13,12,38,24.80
2014,07,13,12,39,25.00
2014,07,13,12,40,25.20
2014,07,13,12,41,25.30
2014,07,13,12,42,25.50
2014,07,13,12,43,25.60
2014,07,13,12,44,25.70
2014,07,13,12,45,25.90
2014,07,13,12,46,25.90
2014,07,13,12,47,25.90
2014,07,13,12,48,25.90
2014,07,13,12,49,25.80
2014,07,13,12,50,25.70
2014,07,13,12,51,25.50
2014,07,13,12,52,25.40
2014,07,13,12,53,25.30
2014,07,13,12,54,25.20
2014,07,13,12,55,25.10
2014,07,13,12,56,25.00
2014,07,13,12,57,24.90
2014,07,13,12,58,24.80
2014,07,13,12,59,24.80
2014,07,13,13,00,24.80
2014,07,13,13,01,24.80
2014,07,13,13,02,24.80
2014,07,13,13,03,24.80
2014,07,13,13,04,24.80
2014,07,13,13,05,24.80
2014,07,13,13,06,24.80
2014,07,13,13,07,24.90
2014,07,13,13,08,25.10
2014,07,13,13,09,25.20
2014,07,13,13,10,25.40
2014,07,13,13,11,25.50
2014,07,13,13,12,25.70
2014,07,13,13,13,25.80
2014,07,13,13,14,25.90
2014,07,13,13,15,26.10
2014,07,13,13,16,26.20
2014,07,13,13,17,26.40
2014,07,13,13,18,26.50
2014,07,13,13,19,26.60
2014,07,13,13,20,26.70
2014,07,13,13,21,26.90
2014,07,13,13,22,27.10
2014,07,13,13,23,27.10
2014,07,13,13,24,27.10
2014,07,13,13,25,27.20
2014,07,13,13,26,27.20
2014,07,13,13,27,27.10
2014,07,13,13,28,27.10
2014,07,13,13,29,27.10
2014,07,13,13,30,27.00
2014,07,13,13,31,27.10
2014,07,13,13,32,27.10
2014,07,13,13,33,27.20
2014,07,13,13,34,27.30
2014,07,13,13,35,27.40
2014,07,13,13,36,27.40
2014,07,13,13,37,27.50
2014,07,13,13,38,27.60
2014,07,13,13,39,27.60
2014,07,13,13,40,27.70
2014,07,13,13,41,27.70
2014,07,13,13,42,27.70
2014,07,13,13,43,27.70
2014,07,13,13,44,27.70
2014,07,13,13,45,27.70
2014,07,13,13,46,27.70
2014,07,13,13,47,27.70
2014,07,13,13,48,27.80
2014,07,13,13,49,27.90
2014,07,13,13,50,28.00
2014,07,13,13,51,28.10
2014,07,13,13,52,28.20
2014,07,13,13,53,28.20
2014,07,13,13,54,28.20
2014,07,13,13,55,28.20
2014,07,13,13,56,28.20
2014,07,13,13,57,28.10
2014,07,13,13,58,28.00
2014,07,13,13,59,28.00
2014,07,13,14,00,27.90
2014,07,13,14,01,27.90
2014,07,13,14,02,27.90
2014,07,13,14,03,27.90
2014,07,13,14,04,28.00
2014,07,13,14,05,28.00
2014,07,13,14,06,28.10
2014,07,13,14,07,28.20
2014,07,13,14,08,28.30
2014,07,13,14,09,28.40
2014,07,13,14,10,28.50
2014,07,13,14,11,28.50
2014,07,13,14,12,28.40
2014,07,13,14,13,28.40
2014,07,13,14,14,28.20
2014,07,13,14,15,28.20
2014,07,13,14,16,28.10
2014,07,13,14,17,28.10
2014,07,13,14,18,28.00
2014,07,13,14,19,27.90
2014,07,13,14,20,27.80
2014,07,13,14,21,27.80
2014,07,13,14,22,27.80
2014,07,13,14,23,27.80
2014,07,13,14,24,27.90
2014,07,13,14,25,28.00
2014,07,13,14,26,28.20
2014,07,13,14,27,28.30
2014,07,13,14,28,28.50
2014,07,13,14,29,28.60
2014,07,13,14,30,28.60
2014,07,13,14,31,28.50
2014,07,13,14,32,28.40
2014,07,13,14,33,28.30
2014,07,13,14,34,28.10
2014,07,13,14,35,28.00
2014,07,13,14,36,28.00
2014,07,13,14,37,27.90
2014,07,13,14,38,27.90
2014,07,13,14,39,27.90
2014,07,13,14,40,28.00
2014,07,13,14,41,28.20
2014,07,13,14,42,28.30
2014,07,13,14,43,28.40
2014,07,13,14,44,28.40
2014,07,13,14,45,28.50
2014,07,13,14,46,28.70
2014,07,13,14,47,29.00
2014,07,13,14,48,29.10
2014,07,13,14,49,29.10
2014,07,13,14,50,29.10
2014,07,13,14,51,29.10
2014,07,13,14,52,29.10
2014,07,13,14,53,29.10
2014,07,13,14,54,29.00
2014,07,13,14,55,29.00
2014,07,13,14,56,29.00
2014,07,13,14,57,28.80
2014,07,13,14,58,28.70
2014,07,13,14,59,28.60
2014,07,13,15,00,28.60
2014,07,13,15,01,28.60
2014,07,13,15,02,28.50
2014,07,13,15,03,28.50
2014,07,13,15,04,28.50
2014,07,13,15,05,28.50
2014,07,13,15,06,28.50
2014,07,13,15,07,28.60
2014,07,13,15,08,28.60
2014,07,13,15,09,28.70
2014,07,13,15,10,28.80
2014,07,13,15,11,29.00
2014,07,13,15,12,29.10
2014,07,13,15,13,29.20
2014,07,13,15,14,29.20
2014,07,13,15,15,29.20
2014,07,13,15,16,29.30
2014,07,13,15,17,29.40
2014,07,13,15,18,29.30
2014,07,13,15,19,29.20
2014,07,13,15,20,29.20
2014,07,13,15,21,29.10
2014,07,13,15,22,29.10
2014,07,13,15,23,29.00
2014,07,13,15,24,28.90
2014,07,13,15,25,28.80
2014,07,13,15,26,28.80
2014,07,13,15,27,28.70
2014,07,13,15,28,28.60
2014,07,13,15,29,28.50
2014,07,13,15,30,28.40
2014,07,13,15,31,28.30
2014,07,13,15,32,28.30
2014,07,13,15,33,28.30
2014,07,13,15,34,28.30
2014,07,13,15,35,28.20
2014,07,13,15,36,28.20
2014,07,13,15,37,28.30
2014,07,13,15,38,28.40
2014,07,13,15,39,28.50
2014,07,13,15,40,28.60
2014,07,13,15,41,28.70
2014,07,13,15,42,28.90
2014,07,13,15,43,28.90
2014,07,13,15,44,29.00
2014,07,13,15,45,29.10
2014,07,13,15,46,29.10
2014,07,13,15,47,29.20
2014,07,13,15,48,29.20
2014,07,13,15,49,29.30
2014,07,13,15,50,29.40
2014,07,13,15,51,29.50
2014,07,13,15,52,29.60
2014,07,13,15,53,29.60
2014,07,13,15,54,29.60
2014,07,13,15,55,29.50
2014,07,13,15,56,29.50
2014,07,13,15,57,29.50
2014,07,13,15,58,29.60
2014,07,13,15,59,29.70
2014,07,13,16,00,29.70
2014,07,13,16,01,29.60
2014,07,13,16,02,29.50
2014,07,13,16,03,29.40
2014,07,13,16,04,29.30
2014,07,13,16,05,29.30
2014,07,13,16,06,29.30
2014,07,13,16,07,29.30
2014,07,13,16,08,29.30
2014,07,13,16,09,29.30
2014,07,13,16,10,29.40
2014,07,13,16,11,29.60
2014,07,13,16,12,29.60
2014,07,13,16,13,29.80
2014,07,13,16,14,29.80
2014,07,13,16,15,29.80
2014,07,13,16,16,29.80
2014,07,13,16,17,29.70
2014,07,13,16,18,29.70
2014,07,13,16,19,29.70
2014,07,13,16,20,29.80
2014,07,13,16,21,29.80
2014,07,13,16,22,29.90
2014,07,13,16,23,29.90
2014,07,13,16,24,29.80
2014,07,13,16,25,29.80
2014,07,13,16,26,29.90
2014,07,13,16,27,29.90
2014,07,13,16,28,30.00
2014,07,13,16,29,30.00
2014,07,13,16,30,30.00
2014,07,13,16,31,30.20
2014,07,13,16,32,30.20
2014,07,13,16,33,30.30
2014,07,13,16,34,30.30
2014,07,13,16,35,30.30
2014,07,13,16,36,30.20
2014,07,13,16,37,30.20
2014,07,13,16,38,30.10
2014,07,13,16,39,30.00
2014,07,13,16,40,30.00
2014,07,13,16,41,29.90
2014,07,13,16,42,30.00
2014,07,13,16,43,30.00
2014,07,13,16,44,30.00
2014,07,13,16,45,30.10
2014,07,13,16,46,30.10
2014,07,13,16,47,30.10
2014,07,13,16,48,30.20
2014,07,13,16,49,30.20
2014,07,13,16,50,30.20
2014,07,13,16,51,30.20
2014,07,13,16,52,30.20
2014,07,13,16,53,30.20
2014,07,13,16,54,30.20
2014,07,13,16,55,30.30
2014,07,13,16,56,30.40
2014,07,13,16,57,30.50
2014,07,13,16,58,30.60
2014,07,13,16,59,30.60
2014,07,13,17,00,30.70
2014,07,13,17,01,30.70
2014,07,13,17,02,30.80
2014,07,13,17,03,30.70
2014,07,13,17,04,30.70
2014,07,13,17,05,30.70
2014,07,13,17,06,30.70
2014,07,13,17,07,30.70
2014,07,13,17,08,30.80
2014,07,13,17,09,30.80
2014,07,13,17,10,30.80
2014,07,13,17,11,30.80
2014,07,13,17,12,30.80
2014,07,13,17,13,30.80
2014,07,13,17,14,30.90
2014,07,13,17,15,31.00
2014,07,13,17,16,31.10
2014,07,13,17,17,31.10
2014,07,13,17,18,31.10
2014,07,13,17,19,31.10
2014,07,13,17,20,31.10
2014,07,13,17,21,31.10
2014,07,13,17,22,31.10
2014,07,13,17,23,31.10